Weather History for Lancaster, PA

Change the Weather History Date:

Thursday, May 1, 2014

  Actual Average Record
Temperature  
Mean Temperature 62 °F -  
Max Temperature 73 °F 71 °F 84 °F (1985)
Min Temperature 53 °F 45 °F 28 °F (1978)
Degree Days  
Heating Degree Days 2    
Growing Degree Days 12 (Base 50)    
Moisture  
Dew Point 54 °F    
Average Humidity 82    
Maximum Humidity 100    
Minimum Humidity 43    
Precipitation  
Precipitation 0.19 in - - ()
Sea Level Pressure  
Sea Level Pressure 29.79 in    
Wind  
Wind Speed 7 mph (WSW)    
Max Wind Speed 18 mph    
Max Gust Speed 25 mph    
Visibility 7 miles    
Events Rain , Thunderstorm    
Averages and records for this station are not official NWS values.
T = Trace of Precipitation, MM = Missing Value Source: NWS Daily Summary

Daily Weather History Graph

Daily Weather History Graph

Search for Another Location

Airport:

Trip Planner

Search our weather history database for the weather conditions in past years. The results will help you decide how hot, cold, wet, or windy it might be!

Date:

Astronomy

May. 01, 2014 Rise Set
Actual Time 6:05 AM EDT 8:00 PM EDT
Civil Twilight 5:35 AM EDT 8:29 PM EDT
Nautical Twilight 4:59 AM EDT 9:05 PM EDT
Astronomical Twilight 4:21 AM EDT 9:44 PM EDT
Moon 7:50 AM EDT (5/1) 10:31 PM EDT (5/1)
Length of Visible Light 14h 53m
Length of Day
13h 55m
Waxing Crescent, 6% of the Moon is Illuminated
May 1
Waxing Crescent
May 6
First Quarter
May 14
Full
May 21
Last Quarter
May 28
New

Hourly Weather History & Observations

Time (EDT) Temp. Dew Point Humidity Pressure Visibility Wind Dir Wind Speed Gust Speed Precip Events Conditions
12:26 AM 57.0 °F 57.0 °F 100% 29.82 in 2.5 mi East 5.8 mph - 0.03 in Rain Light Rain
12:35 AM 57.0 °F 57.0 °F 100% 29.82 in 3.0 mi East 6.9 mph - 0.03 in Rain Light Rain
12:53 AM 61.0 °F 59.0 °F 93% 29.81 in 4.0 mi SSE 9.2 mph - 0.03 in   Overcast
1:29 AM 63.0 °F 62.1 °F 97% 29.80 in 5.0 mi South 8.1 mph - 0.01 in   Overcast
1:53 AM 63.0 °F 62.1 °F 97% 29.79 in 5.0 mi South 11.5 mph - 0.01 in   Overcast
2:25 AM 64.0 °F 62.1 °F 93% 29.78 in 5.0 mi South 11.5 mph - 0.00 in Rain Light Rain
2:49 AM 59.0 °F 57.2 °F 94% 29.79 in 5.0 mi West 12.7 mph - 0.04 in Rain Light Rain
2:53 AM 57.9 °F 55.9 °F 93% 29.80 in 9.0 mi West 12.7 mph - 0.04 in Rain Light Rain
3:45 AM 55.9 °F 54.0 °F 93% 29.81 in 6.0 mi West 8.1 mph - 0.03 in Rain Light Rain
3:53 AM 55.9 °F 54.0 °F 93% 29.81 in 9.0 mi West 9.2 mph - 0.03 in Rain Light Rain
4:30 AM 53.1 °F 52.0 °F 96% 29.81 in 5.0 mi West 10.4 mph - 0.00 in   Overcast
4:45 AM 53.1 °F 52.0 °F 96% 29.81 in 5.0 mi WSW 4.6 mph - 0.00 in Rain Light Rain
4:53 AM 53.1 °F 52.0 °F 96% 29.80 in 5.0 mi Calm Calm - 0.00 in Rain Light Rain
5:06 AM 53.1 °F 51.1 °F 93% 29.81 in 5.0 mi West 3.5 mph - 0.00 in   Overcast
5:24 AM 53.1 °F 52.0 °F 96% 29.80 in 4.0 mi Calm Calm - 0.00 in   Overcast
5:53 AM 53.1 °F 51.1 °F 93% 29.83 in 5.0 mi WSW 4.6 mph - 0.00 in   Overcast
6:31 AM 53.1 °F 52.0 °F 96% 29.83 in 2.5 mi WNW 4.6 mph - N/A   Overcast
6:53 AM 53.1 °F 52.0 °F 96% 29.83 in 3.0 mi West 6.9 mph - N/A   Overcast
7:10 AM 53.1 °F 52.0 °F 96% 29.84 in 2.5 mi West 5.8 mph - N/A   Scattered Clouds
7:20 AM 53.1 °F 52.0 °F 96% 29.84 in 3.0 mi SW 4.6 mph - N/A   Mostly Cloudy
7:53 AM 55.0 °F 53.1 °F 93% 29.83 in 5.0 mi West 5.8 mph - N/A   Overcast
8:53 AM 55.0 °F 53.1 °F 93% 29.84 in 5.0 mi West 4.6 mph - N/A   Overcast
9:53 AM 57.9 °F 55.0 °F 90% 29.84 in 6.0 mi Variable 3.5 mph - N/A   Overcast
10:53 AM 63.0 °F 55.9 °F 78% 29.83 in 10.0 mi WSW 8.1 mph - N/A   Mostly Cloudy
11:53 AM 64.9 °F 55.9 °F 73% 29.81 in 10.0 mi WNW 8.1 mph - N/A   Mostly Cloudy
12:53 PM 69.1 °F 57.0 °F 65% 29.79 in 10.0 mi West 9.2 mph - N/A   Scattered Clouds
1:53 PM 70.0 °F 55.0 °F 59% 29.76 in 10.0 mi Variable 4.6 mph - N/A   Partly Cloudy
2:53 PM 71.1 °F 50.0 °F 47% 29.74 in 10.0 mi WSW 11.5 mph - N/A   Mostly Cloudy
3:53 PM 72.0 °F 48.0 °F 43% 29.72 in 10.0 mi WSW 11.5 mph - N/A   Overcast
4:53 PM 71.1 °F 48.9 °F 45% 29.72 in 10.0 mi WSW 11.5 mph - N/A   Overcast
5:53 PM 70.0 °F 51.1 °F 51% 29.70 in 10.0 mi SSW 8.1 mph - N/A   Overcast
6:53 PM 66.9 °F 54.0 °F 63% 29.70 in 9.0 mi Calm Calm - 0.02 in Rain , Thunderstorm Light Rain
7:22 PM 64.0 °F 57.0 °F 78% 29.72 in 10.0 mi South 4.6 mph - 0.06 in   Mostly Cloudy
7:53 PM 63.0 °F 57.9 °F 84% 29.73 in 10.0 mi NNW 3.5 mph - 0.06 in   Overcast
8:53 PM 61.0 °F 57.9 °F 90% 29.75 in 10.0 mi SSW 3.5 mph - N/A   Mostly Cloudy
9:53 PM 61.0 °F 43.0 °F 52% 29.77 in 10.0 mi NW 18.4 mph 25.3 mph 0.00 in   Partly Cloudy
10:53 PM 55.9 °F 43.0 °F 62% 29.78 in 10.0 mi NW 8.1 mph - N/A   Partly Cloudy
11:53 PM 55.0 °F 41.0 °F 59% 29.78 in 10.0 mi NW 8.1 mph - N/A   Scattered Clouds